Find Qianfan Jigui 06-16

NORAD ID: 62800 Int'l Des: 2025-016 Owner: YUANX Country: CN Constellation: spacesail operational
LEOCIRCULARPOLAR

現在のビュー

3D地球を読み込み中...

Qianfan Jigui 06-16について

説明を読み込み中...

次回通過

Passes for default location (London). Set your location on the main map for personalized predictions.

高度履歴

Loading altitude history...

軌道要素

1 62800U 25016R 26150.80070347 .00000125 00000-0 17500-3 0 9997
2 62800 88.9734 85.5679 0014020 199.6706 160.3906 13.51005704 70066
Epoch: May 30, 2026 • Age: 11 hours

現在のステータス

高度 1062.2 km
速度 7.33 km/s
衛星直下点 16.06°N, 83.93°W
打ち上げ日 Jan 23, 2025
運用期間 1.3 years
タイプ internet

技術仕様

分類 Payload
質量 267.00 kg
乾燥質量 267.00 kg
総質量 267.00 kg
長さ 0.30 m
直径 3.00 m
スパン 10.00 m
形状 Box+pan
製造者 SECM
バスタイプ Qianfan
フェーズステータス In Orbit
所有者/国 YUANX/CN

Most Searched